Time,TemperatureF,DewpointF,PressureIn,WindDirection,WindDirectionDegrees,WindSpeedMPH,WindSpeedGustMPH,Humidity,HourlyPrecipIn,Conditions,Clouds,dailyrainin,SoftwareType,DateUTC
2013-09-20 00:09:00,70.0,66.6,29.91,WNW,290,4.0,4.0,89,0.14,,,0.04,Wunderground v.1.15,2013-09-20 05:09:00,
2013-09-20 00:15:00,69.4,66.7,29.91,NNW,336,3.0,5.0,91,0.23,,,0.06,Wunderground v.1.15,2013-09-20 05:15:00,
2013-09-20 00:20:00,69.0,66.6,29.90,NNW,336,1.0,1.0,92,0.18,,,0.07,Wunderground v.1.15,2013-09-20 05:20:00,
2013-09-20 00:25:00,68.8,66.4,29.89,NNW,336,1.0,5.0,92,0.12,,,0.08,Wunderground v.1.15,2013-09-20 05:25:00,
2013-09-20 00:30:00,68.6,66.5,29.89,NNW,336,0.0,5.0,93,0.08,,,0.08,Wunderground v.1.15,2013-09-20 05:30:00,
2013-09-20 00:35:00,68.4,66.3,29.88,NNW,336,0.0,5.0,93,0.05,,,0.08,Wunderground v.1.15,2013-09-20 05:35:00,
2013-09-20 00:40:00,68.4,66.3,29.88,NNW,336,0.0,5.0,93,0.05,,,0.09,Wunderground v.1.15,2013-09-20 05:40:00,
2013-09-20 00:44:00,68.3,66.5,29.88,NNW,336,0.0,5.0,94,0.10,,,0.10,Wunderground v.1.15,2013-09-20 05:44:00,
2013-09-20 00:49:00,68.2,66.4,29.88,NNW,336,0.0,5.0,94,0.08,,,0.10,Wunderground v.1.15,2013-09-20 05:49:00,
2013-09-20 00:54:00,68.2,66.4,29.88,NNW,336,0.0,5.0,94,0.06,,,0.11,Wunderground v.1.15,2013-09-20 05:54:00,
2013-09-20 00:59:00,68.1,66.3,29.88,NNW,336,0.0,5.0,94,0.13,,,0.12,Wunderground v.1.15,2013-09-20 05:59:00,
2013-09-20 01:04:00,68.1,66.6,29.87,NNW,336,0.0,5.0,95,0.08,,,0.12,Wunderground v.1.15,2013-09-20 06:04:00,
2013-09-20 01:09:00,68.1,66.3,29.87,NNW,336,0.0,5.0,94,0.13,,,0.14,Wunderground v.1.15,2013-09-20 06:09:00,
2013-09-20 01:14:00,68.0,66.5,29.86,NNW,336,0.0,5.0,95,0.11,,,0.14,Wunderground v.1.15,2013-09-20 06:14:00,
2013-09-20 01:20:00,67.9,66.4,29.86,NNW,336,0.0,5.0,95,0.06,,,0.14,Wunderground v.1.15,2013-09-20 06:20:00,
2013-09-20 01:25:00,67.9,66.4,29.86,NNW,336,0.0,5.0,95,0.04,,,0.14,Wunderground v.1.15,2013-09-20 06:25:00,
2013-09-20 01:30:00,67.8,66.3,29.86,NNW,336,0.0,5.0,95,0.00,,,0.14,Wunderground v.1.15,2013-09-20 06:30:00,
2013-09-20 01:35:00,67.8,66.3,29.85,NNW,336,0.0,5.0,95,0.00,,,0.14,Wunderground v.1.15,2013-09-20 06:35:00,
2013-09-20 01:40:00,67.8,66.3,29.84,NNW,336,0.0,5.0,95,0.00,,,0.14,Wunderground v.1.15,2013-09-20 06:40:00,
2013-09-20 01:45:00,67.7,66.2,29.83,NNW,336,0.0,5.0,95,0.00,,,0.14,Wunderground v.1.15,2013-09-20 06:45:00,
2013-09-20 01:50:00,67.6,66.1,29.83,NNW,336,0.0,5.0,95,0.00,,,0.14,Wunderground v.1.15,2013-09-20 06:50:00,
2013-09-20 01:55:00,67.5,66.0,29.83,NNW,336,0.0,5.0,95,0.00,,,0.14,Wunderground v.1.15,2013-09-20 06:55:00,
2013-09-20 02:00:00,67.4,65.9,29.82,NNW,336,0.0,5.0,95,0.00,,,0.14,Wunderground v.1.15,2013-09-20 07:00:00,
2013-09-20 02:05:00,67.2,65.7,29.84,NW,306,0.0,5.0,95,0.00,,,0.14,Wunderground v.1.15,2013-09-20 07:05:00,
2013-09-20 02:10:00,67.1,65.6,29.84,WNW,301,1.0,1.0,95,0.00,,,0.14,Wunderground v.1.15,2013-09-20 07:10:00,
2013-09-20 02:19:00,67.0,65.8,29.84,West,274,1.0,5.0,96,0.00,,,0.14,Wunderground v.1.15,2013-09-20 07:19:00,
2013-09-20 02:24:00,67.1,65.9,29.84,SW,234,2.0,5.0,96,0.00,,,0.14,Wunderground v.1.15,2013-09-20 07:24:00,
2013-09-20 02:29:00,67.1,65.9,29.85,SW,234,2.0,2.0,96,0.00,,,0.14,Wunderground v.1.15,2013-09-20 07:29:00,
2013-09-20 02:34:00,67.2,66.3,29.84,WSW,243,2.0,5.0,97,0.00,,,0.14,Wunderground v.1.15,2013-09-20 07:34:00,
2013-09-20 02:39:00,67.2,66.3,29.84,WSW,243,2.0,5.0,97,0.00,,,0.14,Wunderground v.1.15,2013-09-20 07:39:00,
2013-09-20 02:44:00,67.3,66.4,29.84,WSW,240,1.0,5.0,97,0.00,,,0.14,Wunderground v.1.15,2013-09-20 07:44:00,
2013-09-20 02:49:00,67.4,66.5,29.84,WSW,240,1.0,1.0,97,0.00,,,0.14,Wunderground v.1.15,2013-09-20 07:49:00,
2013-09-20 02:55:00,67.4,66.5,29.84,WSW,240,1.0,3.0,97,0.00,,,0.14,Wunderground v.1.15,2013-09-20 07:55:00,
2013-09-20 03:00:00,67.5,66.6,29.85,SW,230,2.0,2.0,97,0.00,,,0.14,Wunderground v.1.15,2013-09-20 08:00:00,
2013-09-20 03:05:00,67.6,66.7,29.85,SW,228,2.0,5.0,97,0.00,,,0.14,Wunderground v.1.15,2013-09-20 08:05:00,
2013-09-20 03:10:00,67.6,66.7,29.85,SSW,212,1.0,1.0,97,0.00,,,0.14,Wunderground v.1.15,2013-09-20 08:10:00,
2013-09-20 03:15:00,67.6,66.7,29.85,SSW,192,0.0,2.0,97,0.00,,,0.14,Wunderground v.1.15,2013-09-20 08:15:00,
2013-09-20 03:20:00,67.6,66.7,29.86,SSW,193,1.0,1.0,97,0.00,,,0.14,Wunderground v.1.15,2013-09-20 08:20:00,
2013-09-20 03:25:00,67.5,66.6,29.85,SSW,192,1.0,5.0,97,0.00,,,0.14,Wunderground v.1.15,2013-09-20 08:25:00,
2013-09-20 03:30:00,67.5,66.6,29.86,SSW,192,1.0,1.0,97,0.00,,,0.14,Wunderground v.1.15,2013-09-20 08:30:00,
2013-09-20 03:35:00,67.5,66.6,29.85,SW,216,1.0,5.0,97,0.00,,,0.14,Wunderground v.1.15,2013-09-20 08:35:00,
2013-09-20 03:40:00,67.4,66.5,29.85,SW,215,2.0,5.0,97,0.00,,,0.14,Wunderground v.1.15,2013-09-20 08:40:00,
2013-09-20 03:45:00,67.2,66.3,29.85,SW,215,1.0,5.0,97,0.00,,,0.14,Wunderground v.1.15,2013-09-20 08:45:00,
2013-09-20 03:50:00,67.1,66.2,29.86,SW,215,1.0,1.0,97,0.00,,,0.14,Wunderground v.1.15,2013-09-20 08:50:00,
2013-09-20 03:55:00,67.0,66.1,29.85,SW,215,1.0,5.0,97,0.00,,,0.14,Wunderground v.1.15,2013-09-20 08:55:00,
2013-09-20 04:00:00,67.0,66.1,29.85,SW,219,1.0,5.0,97,0.00,,,0.14,Wunderground v.1.15,2013-09-20 09:00:00,
2013-09-20 04:05:00,67.0,66.1,29.85,SW,235,3.0,5.0,97,0.00,,,0.14,Wunderground v.1.15,2013-09-20 09:05:00,
2013-09-20 04:10:00,67.0,66.1,29.85,SW,229,3.0,3.0,97,0.00,,,0.14,Wunderground v.1.15,2013-09-20 09:10:00,
2013-09-20 04:15:00,66.9,66.0,29.85,SW,223,2.0,5.0,97,0.00,,,0.14,Wunderground v.1.15,2013-09-20 09:15:00,
2013-09-20 04:20:00,66.8,65.9,29.85,SW,223,3.0,5.0,97,0.00,,,0.14,Wunderground v.1.15,2013-09-20 09:20:00,
2013-09-20 04:25:00,66.8,65.9,29.85,SW,229,4.0,5.0,97,0.00,,,0.14,Wunderground v.1.15,2013-09-20 09:25:00,
2013-09-20 04:30:00,66.7,65.8,29.86,SW,216,5.0,5.0,97,0.00,,,0.14,Wunderground v.1.15,2013-09-20 09:30:00,
2013-09-20 04:34:00,66.6,65.7,29.85,SW,217,3.0,5.0,97,0.00,,,0.14,Wunderground v.1.15,2013-09-20 09:34:00,
2013-09-20 04:39:00,66.6,66.0,29.86,SW,217,2.0,5.0,98,0.00,,,0.14,Wunderground v.1.15,2013-09-20 09:39:00,
2013-09-20 04:45:00,66.7,66.1,29.86,SW,222,2.0,5.0,98,0.00,,,0.14,Wunderground v.1.15,2013-09-20 09:45:00,
2013-09-20 04:49:00,66.8,66.2,29.86,SW,219,2.0,5.0,98,0.00,,,0.14,Wunderground v.1.15,2013-09-20 09:49:00,
2013-09-20 04:55:00,66.8,66.2,29.86,SW,222,3.0,5.0,98,0.00,,,0.14,Wunderground v.1.15,2013-09-20 09:55:00,
2013-09-20 05:00:00,66.8,66.2,29.87,SSW,209,3.0,3.0,98,0.00,,,0.14,Wunderground v.1.15,2013-09-20 10:00:00,
2013-09-20 05:04:00,66.9,66.3,29.86,SSW,209,2.0,5.0,98,0.00,,,0.14,Wunderground v.1.15,2013-09-20 10:04:00,
2013-09-20 05:09:00,66.9,66.3,29.86,SSW,210,2.0,5.0,98,0.00,,,0.14,Wunderground v.1.15,2013-09-20 10:09:00,
2013-09-20 05:14:00,66.9,66.3,29.86,SSW,209,2.0,5.0,98,0.00,,,0.14,Wunderground v.1.15,2013-09-20 10:14:00,
2013-09-20 05:19:00,66.9,66.3,29.86,SSW,209,1.0,1.0,98,0.00,,,0.14,Wunderground v.1.15,2013-09-20 10:19:00,
2013-09-20 05:24:00,66.8,66.2,29.86,SSW,209,0.0,5.0,98,0.00,,,0.14,Wunderground v.1.15,2013-09-20 10:24:00,
2013-09-20 05:29:00,66.8,66.2,29.86,SSW,209,1.0,5.0,98,0.00,,,0.14,Wunderground v.1.15,2013-09-20 10:29:00,
2013-09-20 05:34:00,66.8,66.2,29.86,SSW,213,3.0,5.0,98,0.00,,,0.14,Wunderground v.1.15,2013-09-20 10:34:00,
2013-09-20 05:39:00,66.8,66.2,29.86,SW,217,3.0,3.0,98,0.00,,,0.14,Wunderground v.1.15,2013-09-20 10:39:00,
2013-09-20 05:44:00,66.8,66.2,29.86,SW,217,3.0,5.0,98,0.00,,,0.14,Wunderground v.1.15,2013-09-20 10:44:00,
2013-09-20 05:49:00,66.7,66.1,29.87,SW,217,2.0,2.0,98,0.00,,,0.14,Wunderground v.1.15,2013-09-20 10:49:00,
2013-09-20 05:54:00,66.7,66.1,29.87,SW,217,1.0,5.0,98,0.00,,,0.15,Wunderground v.1.15,2013-09-20 10:54:00,
2013-09-20 05:59:00,66.7,66.1,29.87,SW,217,1.0,1.0,98,0.00,,,0.15,Wunderground v.1.15,2013-09-20 10:59:00,
2013-09-20 06:04:00,66.7,66.1,29.87,SW,217,1.0,5.0,98,0.00,,,0.15,Wunderground v.1.15,2013-09-20 11:04:00,
2013-09-20 06:10:00,66.7,66.1,29.87,SW,217,0.0,5.0,98,0.00,,,0.15,Wunderground v.1.15,2013-09-20 11:10:00,
2013-09-20 06:15:00,66.7,66.1,29.87,SW,217,0.0,5.0,98,0.00,,,0.15,Wunderground v.1.15,2013-09-20 11:15:00,
2013-09-20 06:19:00,66.7,66.1,29.87,SW,217,0.0,5.0,98,0.00,,,0.15,Wunderground v.1.15,2013-09-20 11:19:00,
2013-09-20 06:24:00,66.7,66.1,29.86,SW,220,1.0,5.0,98,0.00,,,0.15,Wunderground v.1.15,2013-09-20 11:24:00,
2013-09-20 06:29:00,66.7,66.1,29.87,SW,220,2.0,2.0,98,0.00,,,0.15,Wunderground v.1.15,2013-09-20 11:29:00,
2013-09-20 06:34:00,66.7,66.1,29.86,SW,220,1.0,5.0,98,0.00,,,0.15,Wunderground v.1.15,2013-09-20 11:34:00,
2013-09-20 06:40:00,66.6,66.0,29.86,SW,220,0.0,5.0,98,0.00,,,0.16,Wunderground v.1.15,2013-09-20 11:40:00,
2013-09-20 06:45:00,66.6,66.0,29.86,SW,220,0.0,5.0,98,0.00,,,0.16,Wunderground v.1.15,2013-09-20 11:45:00,
2013-09-20 06:50:00,66.5,65.9,29.86,SW,220,0.0,5.0,98,0.00,,,0.16,Wunderground v.1.15,2013-09-20 11:50:00,
2013-09-20 06:55:00,66.4,65.8,29.87,SW,220,0.0,5.0,98,0.00,,,0.16,Wunderground v.1.15,2013-09-20 11:55:00,
2013-09-20 07:00:00,66.3,65.7,29.87,SW,220,0.0,5.0,98,0.00,,,0.16,Wunderground v.1.15,2013-09-20 12:00:00,
2013-09-20 07:05:00,66.3,65.7,29.87,SW,220,0.0,5.0,98,0.00,,,0.16,Wunderground v.1.15,2013-09-20 12:05:00,
2013-09-20 07:10:00,66.2,65.6,29.87,SW,220,0.0,5.0,98,0.00,,,0.16,Wunderground v.1.15,2013-09-20 12:10:00,
2013-09-20 07:15:00,66.3,65.7,29.88,SW,219,0.0,5.0,98,0.00,,,0.16,Wunderground v.1.15,2013-09-20 12:15:00,
2013-09-20 07:20:00,66.3,65.7,29.87,SW,219,1.0,1.0,98,0.00,,,0.16,Wunderground v.1.15,2013-09-20 12:20:00,
2013-09-20 07:25:00,66.3,65.7,29.87,SW,219,1.0,2.0,98,0.00,,,0.16,Wunderground v.1.15,2013-09-20 12:25:00,
2013-09-20 07:30:00,66.3,65.7,29.87,SW,219,2.0,2.0,98,0.00,,,0.16,Wunderground v.1.15,2013-09-20 12:30:00,
2013-09-20 07:35:00,66.3,65.7,29.87,SW,219,2.0,5.0,98,0.00,,,0.16,Wunderground v.1.15,2013-09-20 12:35:00,
2013-09-20 07:40:00,66.3,65.7,29.87,SW,219,1.0,5.0,98,0.00,,,0.16,Wunderground v.1.15,2013-09-20 12:40:00,
2013-09-20 07:45:00,66.4,65.8,29.87,SW,219,1.0,5.0,98,0.00,,,0.16,Wunderground v.1.15,2013-09-20 12:45:00,
2013-09-20 07:49:00,66.5,65.9,29.87,SW,219,0.0,5.0,98,0.00,,,0.16,Wunderground v.1.15,2013-09-20 12:49:00,
2013-09-20 07:54:00,66.6,66.0,29.87,SW,219,1.0,5.0,98,0.00,,,0.16,Wunderground v.1.15,2013-09-20 12:54:00,
2013-09-20 07:59:00,66.7,66.1,29.87,SW,219,1.0,1.0,98,0.00,,,0.16,Wunderground v.1.15,2013-09-20 12:59:00,
2013-09-20 08:04:00,66.8,66.2,29.88,SW,219,0.0,5.0,98,0.00,,,0.16,Wunderground v.1.15,2013-09-20 13:04:00,
2013-09-20 08:09:00,66.8,66.2,29.87,SW,219,0.0,5.0,98,0.00,,,0.16,Wunderground v.1.15,2013-09-20 13:09:00,
2013-09-20 08:14:00,66.7,66.1,29.87,SW,219,1.0,5.0,98,0.00,,,0.16,Wunderground v.1.15,2013-09-20 13:14:00,
2013-09-20 08:19:00,66.9,66.3,29.87,SW,218,1.0,5.0,98,0.00,,,0.16,Wunderground v.1.15,2013-09-20 13:19:00,
2013-09-20 08:24:00,67.0,66.4,29.87,SW,218,1.0,5.0,98,0.00,,,0.16,Wunderground v.1.15,2013-09-20 13:24:00,
2013-09-20 08:29:00,67.2,66.6,29.87,SW,220,1.0,5.0,98,0.00,,,0.16,Wunderground v.1.15,2013-09-20 13:29:00,
2013-09-20 08:34:00,67.3,67.0,29.87,SW,221,2.0,5.0,99,0.00,,,0.16,Wunderground v.1.15,2013-09-20 13:34:00,
2013-09-20 08:39:00,67.3,67.0,29.88,SW,221,2.0,2.0,99,0.00,,,0.16,Wunderground v.1.15,2013-09-20 13:39:00,
2013-09-20 08:44:00,67.4,66.8,29.88,SW,221,1.0,5.0,98,0.00,,,0.16,Wunderground v.1.15,2013-09-20 13:44:00,
2013-09-20 08:50:00,67.3,66.7,29.88,SW,221,1.0,1.0,98,0.00,,,0.16,Wunderground v.1.15,2013-09-20 13:50:00,
2013-09-20 08:55:00,67.3,66.7,29.88,SW,221,1.0,5.0,98,0.00,,,0.16,Wunderground v.1.15,2013-09-20 13:55:00,
2013-09-20 09:00:00,67.3,66.7,29.88,SW,220,0.0,5.0,98,0.00,,,0.16,Wunderground v.1.15,2013-09-20 14:00:00,
2013-09-20 09:05:00,67.3,66.7,29.88,SW,220,0.0,5.0,98,0.00,,,0.16,Wunderground v.1.15,2013-09-20 14:05:00,
2013-09-20 09:10:00,67.4,66.8,29.88,SW,220,0.0,5.0,98,0.00,,,0.16,Wunderground v.1.15,2013-09-20 14:10:00,
2013-09-20 09:15:00,67.4,66.8,29.88,SW,220,0.0,5.0,98,0.00,,,0.16,Wunderground v.1.15,2013-09-20 14:15:00,
2013-09-20 09:20:00,67.4,66.8,29.88,SW,221,0.0,5.0,98,0.00,,,0.16,Wunderground v.1.15,2013-09-20 14:20:00,
2013-09-20 09:25:00,67.4,66.8,29.88,SW,221,0.0,5.0,98,0.00,,,0.16,Wunderground v.1.15,2013-09-20 14:25:00,
2013-09-20 09:30:00,67.5,67.2,29.88,SW,221,0.0,5.0,99,0.00,,,0.16,Wunderground v.1.15,2013-09-20 14:30:00,
2013-09-20 09:35:00,67.8,67.5,29.88,SW,221,0.0,5.0,99,0.00,,,0.16,Wunderground v.1.15,2013-09-20 14:35:00,
2013-09-20 09:40:00,68.1,67.8,29.88,SW,221,0.0,5.0,99,0.00,,,0.16,Wunderground v.1.15,2013-09-20 14:40:00,
2013-09-20 09:45:00,68.2,67.9,29.88,SW,222,0.0,5.0,99,0.00,,,0.16,Wunderground v.1.15,2013-09-20 14:45:00,
2013-09-20 09:50:00,68.5,68.2,29.88,SW,223,0.0,5.0,99,0.00,,,0.16,Wunderground v.1.15,2013-09-20 14:50:00,
2013-09-20 09:55:00,68.7,68.4,29.87,SW,225,0.0,5.0,99,0.00,,,0.16,Wunderground v.1.15,2013-09-20 14:55:00,
2013-09-20 10:00:00,69.1,68.8,29.88,SW,225,0.0,5.0,99,0.00,,,0.16,Wunderground v.1.15,2013-09-20 15:00:00,
2013-09-20 10:05:00,69.3,69.0,29.88,WSW,252,0.0,5.0,99,0.00,,,0.16,Wunderground v.1.15,2013-09-20 15:05:00,
2013-09-20 10:10:00,69.3,69.0,29.88,WSW,255,1.0,5.0,99,0.00,,,0.16,Wunderground v.1.15,2013-09-20 15:10:00,
2013-09-20 10:15:00,69.2,68.9,29.88,NW,321,1.0,5.0,99,0.00,,,0.16,Wunderground v.1.15,2013-09-20 15:15:00,
2013-09-20 10:20:00,69.0,68.4,29.88,NW,321,1.0,1.0,98,0.00,,,0.16,Wunderground v.1.15,2013-09-20 15:20:00,
2013-09-20 10:25:00,69.1,68.5,29.88,NW,306,0.0,5.0,98,0.00,,,0.16,Wunderground v.1.15,2013-09-20 15:25:00,
2013-09-20 10:30:00,68.8,68.2,29.88,WNW,282,1.0,5.0,98,0.00,,,0.16,Wunderground v.1.15,2013-09-20 15:30:00,
2013-09-20 10:35:00,68.7,68.1,29.88,West,260,1.0,5.0,98,0.00,,,0.16,Wunderground v.1.15,2013-09-20 15:35:00,
2013-09-20 10:40:00,68.9,68.3,29.88,WNW,300,0.0,5.0,98,0.00,,,0.16,Wunderground v.1.15,2013-09-20 15:40:00,
2013-09-20 10:45:00,68.9,68.3,29.88,West,273,1.0,5.0,98,0.00,,,0.16,Wunderground v.1.15,2013-09-20 15:45:00,
2013-09-20 10:50:00,68.8,68.2,29.88,West,277,1.0,1.0,98,0.00,,,0.16,Wunderground v.1.15,2013-09-20 15:50:00,
2013-09-20 10:59:00,68.8,68.2,29.89,West,275,0.0,5.0,98,0.00,,,0.16,Wunderground v.1.15,2013-09-20 15:59:00,
2013-09-20 11:04:00,68.9,68.3,29.89,West,275,0.0,5.0,98,0.00,,,0.16,Wunderground v.1.15,2013-09-20 16:04:00,
2013-09-20 11:09:00,69.0,68.4,29.89,West,276,0.0,5.0,98,0.00,,,0.16,Wunderground v.1.15,2013-09-20 16:09:00,
2013-09-20 11:14:00,69.0,68.4,29.88,WNW,294,1.0,5.0,98,0.00,,,0.16,Wunderground v.1.15,2013-09-20 16:14:00,
2013-09-20 11:19:00,69.1,68.5,29.88,WNW,292,1.0,1.0,98,0.00,,,0.16,Wunderground v.1.15,2013-09-20 16:19:00,
2013-09-20 11:24:00,69.4,68.8,29.88,WNW,291,0.0,5.0,98,0.00,,,0.16,Wunderground v.1.15,2013-09-20 16:24:00,
2013-09-20 11:29:00,69.6,68.7,29.88,NNW,334,0.0,5.0,97,0.00,,,0.16,Wunderground v.1.15,2013-09-20 16:29:00,
2013-09-20 11:34:00,69.8,68.6,29.88,NW,312,1.0,5.0,96,0.00,,,0.16,Wunderground v.1.15,2013-09-20 16:34:00,
2013-09-20 11:39:00,69.9,68.4,29.87,WSW,250,1.0,5.0,95,0.00,,,0.16,Wunderground v.1.15,2013-09-20 16:39:00,
2013-09-20 11:44:00,70.1,68.3,29.87,WSW,257,1.0,5.0,94,0.00,,,0.16,Wunderground v.1.15,2013-09-20 16:44:00,
2013-09-20 11:49:00,70.4,68.6,29.87,West,264,1.0,1.0,94,0.00,,,0.16,Wunderground v.1.15,2013-09-20 16:49:00,
2013-09-20 11:54:00,70.6,67.5,29.88,WNW,298,1.0,5.0,90,0.00,,,0.16,Wunderground v.1.15,2013-09-20 16:54:00,
2013-09-20 12:00:00,70.6,67.5,29.87,NW,324,1.0,5.0,90,0.00,,,0.16,Wunderground v.1.15,2013-09-20 17:00:00,
2013-09-20 12:05:00,70.6,67.2,29.87,NW,325,2.0,5.0,89,0.00,,,0.16,Wunderground v.1.15,2013-09-20 17:05:00,
2013-09-20 12:10:00,70.8,67.1,29.88,West,265,1.0,1.0,88,0.00,,,0.16,Wunderground v.1.15,2013-09-20 17:10:00,
2013-09-20 12:15:00,71.0,67.6,29.88,West,266,0.0,5.0,89,0.00,,,0.16,Wunderground v.1.15,2013-09-20 17:15:00,
2013-09-20 12:20:00,71.3,68.5,29.88,West,268,0.0,5.0,91,0.00,,,0.16,Wunderground v.1.15,2013-09-20 17:20:00,
2013-09-20 12:25:00,71.5,68.4,29.87,West,271,0.0,5.0,90,0.00,,,0.16,Wunderground v.1.15,2013-09-20 17:25:00,
2013-09-20 12:35:00,72.1,69.0,29.87,West,269,0.0,5.0,90,0.00,,,0.16,Wunderground v.1.15,2013-09-20 17:35:00,
2013-09-20 12:40:00,72.3,67.9,29.87,West,279,0.0,5.0,86,0.00,,,0.16,Wunderground v.1.15,2013-09-20 17:40:00,
2013-09-20 12:45:00,72.4,67.6,29.87,West,277,0.0,5.0,85,0.00,,,0.16,Wunderground v.1.15,2013-09-20 17:45:00,
2013-09-20 12:50:00,72.6,68.2,29.87,West,277,0.0,5.0,86,0.00,,,0.16,Wunderground v.1.15,2013-09-20 17:50:00,
2013-09-20 12:55:00,72.8,68.0,29.87,West,276,0.0,5.0,85,0.00,,,0.16,Wunderground v.1.15,2013-09-20 17:55:00,
2013-09-20 13:00:00,72.8,67.0,29.87,WNW,284,1.0,5.0,82,0.00,,,0.16,Wunderground v.1.15,2013-09-20 18:00:00,
2013-09-20 13:04:00,72.8,67.3,29.87,WNW,301,1.0,5.0,83,0.00,,,0.16,Wunderground v.1.15,2013-09-20 18:04:00,
2013-09-20 13:09:00,72.9,66.7,29.87,NNW,328,2.0,8.0,81,0.00,,,0.16,Wunderground v.1.15,2013-09-20 18:09:00,
2013-09-20 13:14:00,72.8,66.3,29.87,NW,308,2.0,8.0,80,0.00,,,0.16,Wunderground v.1.15,2013-09-20 18:14:00,
2013-09-20 13:19:00,72.8,66.3,29.86,WSW,250,3.0,3.0,80,0.00,,,0.16,Wunderground v.1.15,2013-09-20 18:19:00,
2013-09-20 13:24:00,72.8,66.6,29.86,West,275,2.0,4.0,81,0.00,,,0.16,Wunderground v.1.15,2013-09-20 18:24:00,
2013-09-20 13:29:00,72.9,66.0,29.86,NNW,346,2.0,2.0,79,0.00,,,0.16,Wunderground v.1.15,2013-09-20 18:29:00,
2013-09-20 13:34:00,73.1,66.6,29.86,NW,323,2.0,5.0,80,0.00,,,0.16,Wunderground v.1.15,2013-09-20 18:34:00,
2013-09-20 13:39:00,73.4,65.7,29.85,NW,313,2.0,2.0,77,0.00,,,0.16,Wunderground v.1.15,2013-09-20 18:39:00,
2013-09-20 13:44:00,73.4,65.0,29.86,WNW,301,2.0,5.0,75,0.00,,,0.16,Wunderground v.1.15,2013-09-20 18:44:00,
2013-09-20 13:49:00,73.2,65.2,29.85,NW,308,2.0,2.0,76,0.00,,,0.16,Wunderground v.1.15,2013-09-20 18:49:00,
2013-09-20 13:54:00,73.0,64.2,29.86,NW,316,2.0,3.0,74,0.00,,,0.16,Wunderground v.1.15,2013-09-20 18:54:00,
2013-09-20 13:59:00,72.7,63.9,29.86,NW,315,2.0,2.0,74,0.00,,,0.16,Wunderground v.1.15,2013-09-20 18:59:00,
2013-09-20 14:04:00,72.7,64.7,29.86,WNW,291,1.0,5.0,76,0.00,,,0.16,Wunderground v.1.15,2013-09-20 19:04:00,
2013-09-20 14:10:00,72.7,64.3,29.86,WNW,289,0.0,5.0,75,0.00,,,0.16,Wunderground v.1.15,2013-09-20 19:10:00,
2013-09-20 14:15:00,72.6,63.8,29.86,WNW,302,0.0,5.0,74,0.00,,,0.16,Wunderground v.1.15,2013-09-20 19:15:00,
2013-09-20 14:20:00,72.5,64.1,29.85,NW,324,1.0,5.0,75,0.00,,,0.16,Wunderground v.1.15,2013-09-20 19:20:00,
2013-09-20 14:25:00,72.4,63.3,29.85,West,280,1.0,5.0,73,0.00,,,0.16,Wunderground v.1.15,2013-09-20 19:25:00,
2013-09-20 14:30:00,72.4,63.3,29.85,WNW,299,1.0,5.0,73,0.00,,,0.17,Wunderground v.1.15,2013-09-20 19:30:00,
2013-09-20 14:35:00,72.3,63.9,29.85,West,269,2.0,5.0,75,0.00,,,0.17,Wunderground v.1.15,2013-09-20 19:35:00,
2013-09-20 14:40:00,72.4,64.0,29.85,WSW,239,2.0,2.0,75,0.00,,,0.17,Wunderground v.1.15,2013-09-20 19:40:00,
2013-09-20 14:45:00,72.8,64.0,29.86,WSW,253,1.0,5.0,74,0.00,,,0.17,Wunderground v.1.15,2013-09-20 19:45:00,
2013-09-20 14:50:00,73.3,64.1,29.85,NW,317,1.0,1.0,73,0.00,,,0.17,Wunderground v.1.15,2013-09-20 19:50:00,
2013-09-20 14:55:00,73.5,63.9,29.85,NW,324,1.0,5.0,72,0.00,,,0.17,Wunderground v.1.15,2013-09-20 19:55:00,
2013-09-20 15:00:00,73.3,63.3,29.85,WSW,254,2.0,5.0,71,0.00,,,0.17,Wunderground v.1.15,2013-09-20 20:00:00,
2013-09-20 15:05:00,73.0,63.0,29.84,WNW,288,2.0,5.0,71,0.00,,,0.17,Wunderground v.1.15,2013-09-20 20:05:00,
2013-09-20 15:09:00,72.7,61.5,29.85,NW,309,2.0,2.0,68,0.00,,,0.17,Wunderground v.1.15,2013-09-20 20:09:00,
2013-09-20 15:14:00,72.4,62.5,29.85,NW,304,2.0,5.0,71,0.00,,,0.17,Wunderground v.1.15,2013-09-20 20:14:00,
2013-09-20 15:19:00,72.4,62.9,29.85,NW,306,1.0,5.0,72,0.00,,,0.17,Wunderground v.1.15,2013-09-20 20:19:00,
2013-09-20 15:24:00,72.3,62.0,29.85,West,267,1.0,5.0,70,0.00,,,0.17,Wunderground v.1.15,2013-09-20 20:24:00,
2013-09-20 15:29:00,72.2,61.9,29.85,West,269,2.0,2.0,70,0.00,,,0.17,Wunderground v.1.15,2013-09-20 20:29:00,
2013-09-20 15:34:00,72.4,61.2,29.85,WNW,290,2.0,5.0,68,0.00,,,0.17,Wunderground v.1.15,2013-09-20 20:34:00,
2013-09-20 15:39:00,72.6,62.3,29.85,NW,317,2.0,2.0,70,0.00,,,0.17,Wunderground v.1.15,2013-09-20 20:39:00,
2013-09-20 15:49:00,72.5,61.7,29.85,NW,324,2.0,5.0,69,0.00,,,0.17,Wunderground v.1.15,2013-09-20 20:49:00,
2013-09-20 15:54:00,71.9,61.6,29.85,SSE,161,3.0,5.0,70,0.00,,,0.17,Wunderground v.1.15,2013-09-20 20:54:00,
2013-09-20 15:59:00,71.4,60.7,29.85,WNW,285,3.0,5.0,69,0.00,,,0.17,Wunderground v.1.15,2013-09-20 20:59:00,
2013-09-20 16:04:00,71.2,61.7,29.85,West,280,2.0,5.0,72,0.00,,,0.17,Wunderground v.1.15,2013-09-20 21:04:00,
2013-09-20 16:09:00,71.1,60.8,29.85,North,11,2.0,2.0,70,0.00,,,0.17,Wunderground v.1.15,2013-09-20 21:09:00,
2013-09-20 16:19:00,70.7,60.8,29.85,West,266,2.0,5.0,71,0.00,,,0.17,Wunderground v.1.15,2013-09-20 21:19:00,
2013-09-20 16:24:00,70.5,60.6,29.85,NNE,13,2.0,5.0,71,0.00,,,0.17,Wunderground v.1.15,2013-09-20 21:24:00,
2013-09-20 16:29:00,70.4,60.5,29.85,WNW,299,2.0,5.0,71,0.00,,,0.17,Wunderground v.1.15,2013-09-20 21:29:00,
2013-09-20 16:34:00,70.4,60.9,29.85,NNW,328,3.0,5.0,72,0.00,,,0.17,Wunderground v.1.15,2013-09-20 21:34:00,
2013-09-20 16:39:00,70.4,60.1,29.85,WNW,295,3.0,5.0,70,0.00,,,0.17,Wunderground v.1.15,2013-09-20 21:39:00,
2013-09-20 16:44:00,70.4,59.3,29.85,West,265,3.0,5.0,68,0.00,,,0.17,Wunderground v.1.15,2013-09-20 21:44:00,
2013-09-20 16:50:00,70.3,59.2,29.85,West,269,3.0,6.0,68,0.00,,,0.17,Wunderground v.1.15,2013-09-20 21:50:00,
2013-09-20 16:55:00,70.3,59.2,29.85,WNW,302,2.0,6.0,68,0.00,,,0.17,Wunderground v.1.15,2013-09-20 21:55:00,
2013-09-20 17:00:00,70.5,59.4,29.85,WNW,300,1.0,1.0,68,0.00,,,0.17,Wunderground v.1.15,2013-09-20 22:00:00,
2013-09-20 17:05:00,70.4,58.1,29.85,NW,311,1.0,4.0,65,0.00,,,0.17,Wunderground v.1.15,2013-09-20 22:05:00,
2013-09-20 17:10:00,70.1,57.8,29.86,NW,315,3.0,3.0,65,0.00,,,0.17,Wunderground v.1.15,2013-09-20 22:10:00,
2013-09-20 17:15:00,69.7,58.3,29.86,WNW,290,2.0,5.0,67,0.00,,,0.17,Wunderground v.1.15,2013-09-20 22:15:00,
2013-09-20 17:20:00,69.7,57.8,29.86,North,5,1.0,5.0,66,0.00,,,0.17,Wunderground v.1.15,2013-09-20 22:20:00,
2013-09-20 17:25:00,69.5,57.6,29.86,WNW,300,2.0,5.0,66,0.00,,,0.17,Wunderground v.1.15,2013-09-20 22:25:00,
2013-09-20 17:30:00,69.1,57.3,29.86,NW,326,3.0,3.0,66,0.00,,,0.17,Wunderground v.1.15,2013-09-20 22:30:00,
2013-09-20 17:35:00,69.1,57.7,29.86,NW,307,2.0,5.0,67,0.00,,,0.17,Wunderground v.1.15,2013-09-20 22:35:00,
2013-09-20 17:40:00,69.5,58.1,29.86,NW,315,1.0,1.0,67,0.00,,,0.17,Wunderground v.1.15,2013-09-20 22:40:00,
2013-09-20 17:45:00,69.8,57.9,29.86,WNW,288,1.0,4.0,66,0.00,,,0.17,Wunderground v.1.15,2013-09-20 22:45:00,
2013-09-20 17:50:00,69.8,57.9,29.86,NW,320,1.0,5.0,66,0.00,,,0.17,Wunderground v.1.15,2013-09-20 22:50:00,
2013-09-20 17:55:00,69.6,57.7,29.86,NW,310,1.0,5.0,66,0.00,,,0.17,Wunderground v.1.15,2013-09-20 22:55:00,
2013-09-20 18:00:00,69.1,57.3,29.86,WNW,302,1.0,5.0,66,0.00,,,0.17,Wunderground v.1.15,2013-09-20 23:00:00,
2013-09-20 18:05:00,68.8,57.4,29.86,WNW,302,1.0,5.0,67,0.00,,,0.17,Wunderground v.1.15,2013-09-20 23:05:00,
2013-09-20 18:10:00,68.5,57.9,29.86,NW,304,1.0,1.0,69,0.00,,,0.17,Wunderground v.1.15,2013-09-20 23:10:00,
2013-09-20 18:15:00,68.2,58.0,29.86,NW,304,0.0,5.0,70,0.00,,,0.17,Wunderground v.1.15,2013-09-20 23:15:00,
2013-09-20 18:20:00,67.9,57.4,29.86,WNW,301,1.0,5.0,69,0.00,,,0.17,Wunderground v.1.15,2013-09-20 23:20:00,
2013-09-20 18:24:00,67.5,56.6,29.86,NNW,339,2.0,5.0,68,0.00,,,0.17,Wunderground v.1.15,2013-09-20 23:24:00,
2013-09-20 18:29:00,67.2,54.6,29.86,NW,319,3.0,8.0,64,0.00,,,0.17,Wunderground v.1.15,2013-09-20 23:29:00,
2013-09-20 18:34:00,67.0,53.5,29.87,NW,307,4.0,8.0,62,0.00,,,0.17,Wunderground v.1.15,2013-09-20 23:34:00,
2013-09-20 18:39:00,66.7,53.7,29.87,North,360,3.0,3.0,63,0.00,,,0.17,Wunderground v.1.15,2013-09-20 23:39:00,
2013-09-20 18:44:00,66.3,53.3,29.87,NW,310,3.0,5.0,63,0.00,,,0.17,Wunderground v.1.15,2013-09-20 23:44:00,
2013-09-20 18:49:00,66.0,53.0,29.87,WNW,303,4.0,4.0,63,0.00,,,0.17,Wunderground v.1.15,2013-09-20 23:49:00,
2013-09-20 18:54:00,65.7,52.3,29.87,North,360,4.0,5.0,62,0.00,,,0.17,Wunderground v.1.15,2013-09-20 23:54:00,
2013-09-20 18:59:00,65.4,52.0,29.87,NNE,23,5.0,5.0,62,0.00,,,0.17,Wunderground v.1.15,2013-09-20 23:59:00,
2013-09-20 19:04:00,65.1,52.2,29.88,NNW,336,4.0,5.0,63,0.00,,,0.17,Wunderground v.1.15,2013-09-21 00:04:00,
2013-09-20 19:09:00,64.8,52.3,29.88,WNW,287,3.0,3.0,64,0.00,,,0.17,Wunderground v.1.15,2013-09-21 00:09:00,
2013-09-20 19:14:00,64.5,52.5,29.88,NW,308,3.0,5.0,65,0.00,,,0.17,Wunderground v.1.15,2013-09-21 00:14:00,
2013-09-20 19:19:00,64.1,52.5,29.88,NNW,348,2.0,5.0,66,0.00,,,0.17,Wunderground v.1.15,2013-09-21 00:19:00,
2013-09-20 19:24:00,63.8,52.6,29.88,NNW,342,2.0,5.0,67,0.00,,,0.17,Wunderground v.1.15,2013-09-21 00:24:00,
2013-09-20 19:29:00,63.5,52.7,29.88,WNW,295,3.0,3.0,68,0.00,,,0.17,Wunderground v.1.15,2013-09-21 00:29:00,
2013-09-20 19:34:00,63.3,53.0,29.89,NNW,339,3.0,5.0,69,0.00,,,0.17,Wunderground v.1.15,2013-09-21 00:34:00,
2013-09-20 19:39:00,63.1,52.8,29.88,NNW,336,2.0,2.0,69,0.00,,,0.17,Wunderground v.1.15,2013-09-21 00:39:00,
2013-09-20 19:44:00,62.8,52.9,29.88,NNW,338,2.0,5.0,70,0.00,,,0.17,Wunderground v.1.15,2013-09-21 00:44:00,
2013-09-20 19:49:00,62.6,53.4,29.88,NW,320,1.0,1.0,72,0.00,,,0.17,Wunderground v.1.15,2013-09-21 00:49:00,
2013-09-20 19:54:00,62.3,52.8,29.89,NW,315,1.0,5.0,71,0.00,,,0.17,Wunderground v.1.15,2013-09-21 00:54:00,
2013-09-20 20:00:00,62.1,53.0,29.88,NW,316,1.0,1.0,72,0.00,,,0.17,Wunderground v.1.15,2013-09-21 01:00:00,
2013-09-20 20:05:00,61.8,52.7,29.89,NW,313,1.0,5.0,72,0.00,,,0.17,Wunderground v.1.15,2013-09-21 01:05:00,
2013-09-20 20:10:00,61.6,52.9,29.89,NW,323,1.0,1.0,73,0.00,,,0.17,Wunderground v.1.15,2013-09-21 01:10:00,
2013-09-20 20:15:00,61.4,52.7,29.89,NW,313,2.0,2.0,73,0.00,,,0.17,Wunderground v.1.15,2013-09-21 01:15:00,
2013-09-20 20:20:00,61.2,52.5,29.89,NW,320,2.0,5.0,73,0.00,,,0.17,Wunderground v.1.15,2013-09-21 01:20:00,
2013-09-20 20:25:00,61.0,52.7,29.89,NW,313,2.0,5.0,74,0.00,,,0.17,Wunderground v.1.15,2013-09-21 01:25:00,
2013-09-20 20:35:00,60.6,52.3,29.89,NW,311,0.0,5.0,74,0.00,,,0.17,Wunderground v.1.15,2013-09-21 01:35:00,
2013-09-20 20:40:00,60.4,52.1,29.89,NW,311,0.0,5.0,74,0.00,,,0.17,Wunderground v.1.15,2013-09-21 01:40:00,
2013-09-20 20:45:00,60.2,52.2,29.89,NW,311,0.0,5.0,75,0.00,,,0.17,Wunderground v.1.15,2013-09-21 01:45:00,
2013-09-20 20:50:00,60.0,52.4,29.89,NW,311,0.0,5.0,76,0.00,,,0.17,Wunderground v.1.15,2013-09-21 01:50:00,
2013-09-20 20:55:00,59.7,52.5,29.90,NW,311,0.0,5.0,77,0.00,,,0.17,Wunderground v.1.15,2013-09-21 01:55:00,
2013-09-20 21:00:00,59.5,52.3,29.89,NW,311,0.0,5.0,77,0.00,,,0.17,Wunderground v.1.15,2013-09-21 02:00:00,
2013-09-20 21:04:00,59.3,52.4,29.89,NW,311,0.0,5.0,78,0.00,,,0.17,Wunderground v.1.15,2013-09-21 02:04:00,
2013-09-20 21:09:00,59.1,52.2,29.89,NW,311,0.0,5.0,78,0.00,,,0.17,Wunderground v.1.15,2013-09-21 02:09:00,
2013-09-20 21:14:00,58.9,52.4,29.90,NW,311,0.0,5.0,79,0.00,,,0.17,Wunderground v.1.15,2013-09-21 02:14:00,
2013-09-20 21:19:00,58.7,52.2,29.90,NW,311,0.0,5.0,79,0.00,,,0.17,Wunderground v.1.15,2013-09-21 02:19:00,
2013-09-20 21:24:00,58.5,52.0,29.90,NW,311,0.0,5.0,79,0.00,,,0.17,Wunderground v.1.15,2013-09-21 02:24:00,
2013-09-20 21:29:00,58.4,52.3,29.90,NW,311,0.0,5.0,80,0.00,,,0.17,Wunderground v.1.15,2013-09-21 02:29:00,
2013-09-20 21:39:00,58.0,52.2,29.90,NW,311,0.0,5.0,81,0.00,,,0.17,Wunderground v.1.15,2013-09-21 02:39:00,
2013-09-20 21:44:00,57.8,52.3,29.90,NW,311,0.0,5.0,82,0.00,,,0.17,Wunderground v.1.15,2013-09-21 02:44:00,
2013-09-20 21:49:00,57.7,52.6,29.90,NW,311,0.0,5.0,83,0.00,,,0.17,Wunderground v.1.15,2013-09-21 02:49:00,
2013-09-20 21:54:00,57.5,52.4,29.91,NW,311,0.0,5.0,83,0.00,,,0.17,Wunderground v.1.15,2013-09-21 02:54:00,
2013-09-20 21:59:00,57.3,52.5,29.91,NW,311,0.0,5.0,84,0.00,,,0.17,Wunderground v.1.15,2013-09-21 02:59:00,
2013-09-20 22:04:00,57.2,52.4,29.91,NW,311,0.0,5.0,84,0.00,,,0.17,Wunderground v.1.15,2013-09-21 03:04:00,
2013-09-20 22:14:00,56.9,52.4,29.90,NW,311,0.0,5.0,85,0.00,,,0.17,Wunderground v.1.15,2013-09-21 03:14:00,
2013-09-20 22:19:00,56.8,52.3,29.90,NW,313,0.0,5.0,85,0.00,,,0.17,Wunderground v.1.15,2013-09-21 03:19:00,
2013-09-20 22:24:00,56.7,52.6,29.90,NW,313,0.0,5.0,86,0.00,,,0.17,Wunderground v.1.15,2013-09-21 03:24:00,
2013-09-20 22:29:00,56.5,52.4,29.90,NW,313,0.0,5.0,86,0.00,,,0.17,Wunderground v.1.15,2013-09-21 03:29:00,
2013-09-20 22:34:00,56.4,52.3,29.91,NW,313,0.0,5.0,86,0.00,,,0.17,Wunderground v.1.15,2013-09-21 03:34:00,
2013-09-20 22:39:00,56.2,52.4,29.90,NW,313,0.0,5.0,87,0.00,,,0.17,Wunderground v.1.15,2013-09-21 03:39:00,
2013-09-20 22:44:00,56.1,52.3,29.90,NW,313,0.0,5.0,87,0.00,,,0.17,Wunderground v.1.15,2013-09-21 03:44:00,
2013-09-20 22:49:00,55.9,52.4,29.90,NW,313,1.0,1.0,88,0.00,,,0.17,Wunderground v.1.15,2013-09-21 03:49:00,
2013-09-20 22:54:00,55.8,52.3,29.90,NW,313,0.0,5.0,88,0.00,,,0.17,Wunderground v.1.15,2013-09-21 03:54:00,
2013-09-20 22:59:00,55.7,52.2,29.90,NW,313,0.0,5.0,88,0.00,,,0.17,Wunderground v.1.15,2013-09-21 03:59:00,
2013-09-20 23:04:00,55.6,52.1,29.90,NW,313,0.0,5.0,88,0.00,,,0.17,Wunderground v.1.15,2013-09-21 04:04:00,
2013-09-20 23:09:00,55.5,52.3,29.90,NW,313,0.0,5.0,89,0.00,,,0.17,Wunderground v.1.15,2013-09-21 04:09:00,
2013-09-20 23:15:00,55.4,52.2,29.90,NW,313,0.0,5.0,89,0.00,,,0.17,Wunderground v.1.15,2013-09-21 04:15:00,
2013-09-20 23:20:00,55.4,52.2,29.90,NW,313,0.0,5.0,89,0.00,,,0.17,Wunderground v.1.15,2013-09-21 04:20:00,
2013-09-20 23:25:00,55.3,52.1,29.90,NW,313,0.0,5.0,89,0.00,,,0.17,Wunderground v.1.15,2013-09-21 04:25:00,
2013-09-20 23:30:00,55.2,52.0,29.90,NW,313,0.0,5.0,89,0.00,,,0.17,Wunderground v.1.15,2013-09-21 04:30:00,
2013-09-20 23:35:00,55.1,52.2,29.90,NW,313,0.0,5.0,90,0.00,,,0.17,Wunderground v.1.15,2013-09-21 04:35:00,
2013-09-20 23:40:00,55.1,52.2,29.90,NW,313,0.0,5.0,90,0.00,,,0.17,Wunderground v.1.15,2013-09-21 04:40:00,
2013-09-20 23:45:00,55.0,52.1,29.90,NW,313,0.0,5.0,90,0.00,,,0.17,Wunderground v.1.15,2013-09-21 04:45:00,
2013-09-20 23:50:00,55.0,52.1,29.90,NW,313,0.0,5.0,90,0.00,,,0.17,Wunderground v.1.15,2013-09-21 04:50:00,
2013-09-20 23:55:00,54.8,51.9,29.90,NW,313,0.0,5.0,90,0.00,,,0.17,Wunderground v.1.15,2013-09-21 04:55:00,